When you browse on this site, cookies collect data to enhance your experience and personalize the content and advertising you see.
Visit our Privacy Policy to learn more. By continuing to use the site, you agree to this use of cookies and data.

Hourly Weather Maza

Today, 26 September, Saturday

Time Temperature Precipitation Wind Pressure Humidity
00:00 +12°C° 0 mm 2 mps 760 mmHg 63%
01:00 +12°C° 0 mm 2 mps 761 mmHg 63%
02:00 +12°C° 0 mm 2 mps 761 mmHg 62%
03:00 +10°C° 0 mm 2 mps 761 mmHg 61%
04:00 +10°C° 0 mm 2 mps 761 mmHg 61%
05:00 +10°C° 0 mm 2 mps 761 mmHg 62%
06:00 +10°C° 0 mm 2 mps 761 mmHg 62%
07:00 +11°C° 0 mm 3 mps 762 mmHg 58%
08:00 +12°C° 0 mm 3 mps 762 mmHg 54%
09:00 +14°C° 0 mm 4 mps 762 mmHg 50%
10:00 +15°C° 0 mm 4 mps 763 mmHg 47%
11:00 +17°C° 0 mm 4 mps 763 mmHg 43%
12:00 +18°C° 0 mm 4 mps 763 mmHg 39%
13:00 +18°C° 0 mm 4 mps 763 mmHg 39%
14:00 +18°C° 0 mm 4 mps 763 mmHg 39%
15:00 +19°C° 0 mm 4 mps 763 mmHg 40%
16:00 +17°C° 0 mm 4 mps 763 mmHg 44%
17:00 +16°C° 0 mm 3 mps 763 mmHg 48%
18:00 +14°C° 0 mm 3 mps 763 mmHg 52%
19:00 +13°C° 0 mm 3 mps 763 mmHg 53%
20:00 +12°C° 0 mm 3 mps 763 mmHg 54%
21:00 +11°C° 0 mm 3 mps 763 mmHg 55%
22:00 +12°C° 0 mm 2 mps 763 mmHg 57%
23:00 +10°C° 0 mm 2 mps 764 mmHg 58%

Tomorrow, 27 September, Sunday

Time Temperature Precipitation Wind Pressure Humidity
00:00 +10°C° 0 mm 2 mps 764 mmHg 60%
01:00 +10°C° 0 mm 2 mps 764 mmHg 59%
02:00 +10°C° 0 mm 2 mps 765 mmHg 59%
03:00 +10°C° 0 mm 2 mps 765 mmHg 59%
04:00 +9°C° 0 mm 2 mps 765 mmHg 60%
05:00 +9°C° 0 mm 2 mps 765 mmHg 61%
06:00 +8°C° 0 mm 2 mps 765 mmHg 62%
07:00 +10°C° 0 mm 2 mps 765 mmHg 58%
08:00 +13°C° 0 mm 2 mps 765 mmHg 54%
09:00 +14°C° 0 mm 2 mps 766 mmHg 49%
10:00 +14°C° 0 mm 3 mps 765 mmHg 46%
11:00 +17°C° 0 mm 3 mps 765 mmHg 42%
12:00 +18°C° 0 mm 3 mps 765 mmHg 38%
13:00 +18°C° 0 mm 3 mps 765 mmHg 38%
14:00 +18°C° 0 mm 3 mps 765 mmHg 37%
15:00 +18°C° 0 mm 3 mps 765 mmHg 37%
16:00 +17°C° 0 mm 2 mps 765 mmHg 40%
17:00 +16°C° 0 mm 2 mps 765 mmHg 43%
18:00 +14°C° 0 mm 2 mps 765 mmHg 47%
19:00 +14°C° 0 mm 2 mps 765 mmHg 47%
20:00 +14°C° 0 mm 2 mps 765 mmHg 47%
21:00 +13°C° 0 mm 2 mps 765 mmHg 48%
22:00 +13°C° 0 mm 1 mps 766 mmHg 49%
23:00 +12°C° 0 mm 1 mps 766 mmHg 50%

Day after tomorrow, 28 September, Monday

Time Temperature Precipitation Wind Pressure Humidity
00:00 +12°C° 0 mm 1 mps 766 mmHg 51%
01:00 +12°C° 0 mm 1 mps 766 mmHg 51%
02:00 +11°C° 0 mm 1 mps 766 mmHg 52%
03:00 +11°C° 0 mm 1 mps 766 mmHg 53%
04:00 +11°C° 0 mm 1 mps 766 mmHg 54%
05:00 +10°C° 0 mm 1 mps 766 mmHg 55%
06:00 +10°C° 0 mm 1 mps 766 mmHg 56%
07:00 +12°C° 0 mm 1 mps 766 mmHg 52%
08:00 +13°C° 0 mm 1 mps 766 mmHg 48%
09:00 +15°C° 0 mm 1 mps 767 mmHg 44%
10:00 +16°C° 0 mm 2 mps 767 mmHg 41%
11:00 +17°C° 0 mm 2 mps 767 mmHg 37%
12:00 +19°C° 0 mm 2 mps 766 mmHg 34%
13:00 +19°C° 0 mm 2 mps 766 mmHg 35%
14:00 +19°C° 0 mm 2 mps 766 mmHg 35%
15:00 +19°C° 0 mm 2 mps 766 mmHg 35%
16:00 +19°C° 0 mm 1 mps 766 mmHg 39%
17:00 +16°C° 0 mm 1 mps 766 mmHg 42%
18:00 +15°C° 0 mm 1 mps 766 mmHg 46%
19:00 +14°C° 0 mm 1 mps 766 mmHg 47%
20:00 +14°C° 0 mm 1 mps 766 mmHg 48%
21:00 +13°C° 0 mm 1 mps 766 mmHg 50%
22:00 +13°C° 0 mm 1 mps 766 mmHg 51%
23:00 +13°C° 0 mm 1 mps 766 mmHg 52%

29 September, Tuesday

Time Temperature Precipitation Wind Pressure Humidity
00:00 +12°C° 0 mm 1 mps 766 mmHg 54%
01:00 +11°C° 0 mm 0 mps 766 mmHg 55%
02:00 +10°C° 0 mm 0 mps 766 mmHg 57%
03:00 +10°C° 0 mm 0 mps 766 mmHg 58%
04:00 +10°C° 0 mm 0 mps 766 mmHg 59%
05:00 +10°C° 0 mm 0 mps 766 mmHg 61%
06:00 +9°C° 0 mm 0 mps 766 mmHg 62%
07:00 +12°C° 0 mm 1 mps 766 mmHg 58%
08:00 +14°C° 0 mm 1 mps 766 mmHg 54%
09:00 +16°C° 0 mm 1 mps 766 mmHg 50%
10:00 +18°C° 0 mm 1 mps 766 mmHg 48%
11:00 +18°C° 0 mm 2 mps 766 mmHg 46%
12:00 +19°C° 0 mm 2 mps 766 mmHg 44%
13:00 +19°C° 0 mm 2 mps 765 mmHg 44%
14:00 +19°C° 0 mm 2 mps 765 mmHg 43%
15:00 +20°C° 0 mm 2 mps 765 mmHg 43%
16:00 +18°C° 0 mm 2 mps 765 mmHg 47%
17:00 +16°C° 0 mm 2 mps 765 mmHg 52%
18:00 +15°C° 0 mm 1 mps 765 mmHg 57%
19:00 +14°C° 0 mm 2 mps 765 mmHg 58%
20:00 +14°C° 0 mm 2 mps 765 mmHg 60%
21:00 +13°C° 0 mm 2 mps 764 mmHg 62%
22:00 +13°C° 0 mm 2 mps 764 mmHg 64%
23:00 +12°C° 0 mm 2 mps 764 mmHg 66%

30 September, Wednesday

Time Temperature Precipitation Wind Pressure Humidity
00:00 +12°C° 0 mm 2 mps 764 mmHg 67%
01:00 +11°C° 0 mm 1 mps 764 mmHg 69%
02:00 +11°C° 0 mm 1 mps 764 mmHg 71%
03:00 +11°C° 0 mm 1 mps 764 mmHg 73%
04:00 +10°C° 0 mm 1 mps 764 mmHg 75%
05:00 +10°C° 0 mm 1 mps 764 mmHg 77%
06:00 +10°C° 0 mm 1 mps 764 mmHg 79%
07:00 +12°C° 0 mm 1 mps 764 mmHg 73%
08:00 +13°C° 0 mm 2 mps 764 mmHg 67%
09:00 +15°C° 0 mm 2 mps 764 mmHg 61%
10:00 +16°C° 0 mm 2 mps 764 mmHg 57%
11:00 +18°C° 0 mm 3 mps 764 mmHg 52%
12:00 +19°C° 0 mm 3 mps 764 mmHg 48%
13:00 +19°C° 0 mm 3 mps 763 mmHg 47%
14:00 +20°C° 0 mm 3 mps 763 mmHg 45%
15:00 +20°C° 0 mm 3 mps 763 mmHg 44%
16:00 +19°C° 0 mm 3 mps 763 mmHg 49%
17:00 +17°C° 0 mm 3 mps 763 mmHg 53%
18:00 +16°C° 0 mm 3 mps 763 mmHg 57%
19:00 +14°C° 0 mm 3 mps 763 mmHg 60%
20:00 +14°C° 0 mm 3 mps 763 mmHg 63%
21:00 +13°C° 0 mm 3 mps 763 mmHg 66%
22:00 +13°C° 0 mm 3 mps 763 mmHg 67%
23:00 +12°C° 0 mm 3 mps 763 mmHg 68%

1 October, Thursday

Time Temperature Precipitation Wind Pressure Humidity
00:00 +13°C° 0 mm 2 mps 763 mmHg 69%
01:00 +12°C° 0 mm 2 mps 763 mmHg 71%
02:00 +12°C° 0 mm 2 mps 763 mmHg 72%
03:00 +10°C° 0 mm 2 mps 763 mmHg 74%
04:00 +10°C° 0 mm 2 mps 763 mmHg 75%
05:00 +10°C° 0 mm 2 mps 764 mmHg 77%
06:00 +9°C° 0 mm 2 mps 764 mmHg 78%
07:00 +12°C° 0 mm 2 mps 764 mmHg 73%
08:00 +14°C° 0 mm 2 mps 764 mmHg 68%
09:00 +16°C° 0 mm 3 mps 764 mmHg 63%
10:00 +17°C° 0 mm 3 mps 763 mmHg 60%
11:00 +18°C° 0 mm 4 mps 763 mmHg 56%
12:00 +20°C° 0 mm 4 mps 763 mmHg 52%
13:00 +20°C° 0 mm 4 mps 763 mmHg 52%
14:00 +20°C° 0 mm 4 mps 763 mmHg 51%
15:00 +20°C° 0 mm 4 mps 763 mmHg 51%
16:00 +18°C° 0 mm 3 mps 762 mmHg 56%
17:00 +17°C° 0 mm 3 mps 762 mmHg 61%
18:00 +16°C° 0 mm 3 mps 762 mmHg 65%
19:00 +14°C° 0 mm 3 mps 763 mmHg 67%
20:00 +14°C° 0 mm 2 mps 763 mmHg 69%
21:00 +14°C° 0 mm 2 mps 763 mmHg 71%
22:00 +13°C° 0 mm 2 mps 763 mmHg 73%
23:00 +13°C° 0 mm 2 mps 763 mmHg 75%
Show more